Location: Caltech
(34.1382°N, 118.1253°W)
Time: 15:13:15
(UTC-07:00)

JAS-2 - Visible Passes

Search period start: 27 August 2016 00:00
Search period end: 06 September 2016 00:00
Orbit: 800 x 1322 km, 98.6° (Epoch: 26 August)

Date Brightness Start Highest point End Pass type
(mag) Time Alt. Az. Time Alt. Az. Time Alt. Az.
27 Aug 11.6 00:56:13 10° NNE 00:58:46 25° NNE 00:58:46 25° NNE visible
27 Aug 11.8 02:42:59 10° NNW 02:45:15 17° NW 02:45:15 17° NW visible
28 Aug 12.1 00:02:07 10° NE 00:02:59 13° NE 00:02:59 13° NE visible
28 Aug 11.4 01:46:28 10° N 01:49:27 27° NNW 01:49:27 27° NNW visible
29 Aug 11.6 00:51:14 10° NNE 00:53:40 24° NNE 00:53:40 24° NNE visible
29 Aug 11.8 02:37:46 10° NNW 02:40:09 17° NW 02:40:09 17° NW visible
29 Aug 12.2 23:57:16 10° NE 23:57:52 12° NE 23:57:52 12° NE visible
30 Aug 11.5 01:41:25 10° N 01:44:21 27° N 01:44:21 27° N visible
31 Aug 11.7 00:46:17 10° NNE 00:48:34 23° NNE 00:48:34 23° NNE visible
31 Aug 11.8 02:32:35 10° NNW 02:35:02 18° NW 02:35:02 18° NW visible
31 Aug 12.2 23:52:26 10° NE 23:52:46 11° NE 23:52:46 11° NE visible
01 Sep 11.6 01:36:23 10° N 01:39:14 26° N 01:39:14 26° N visible
02 Sep 11.8 00:41:20 10° NNE 00:43:27 21° NNE 00:43:27 21° NNE visible
02 Sep 11.8 02:27:27 10° NNW 02:29:56 19° NNW 02:29:56 19° NNW visible
02 Sep 12.3 23:47:37 10° NE 23:47:40 10° NE 23:47:40 10° NE visible
03 Sep 11.6 01:31:22 10° N 01:34:08 26° N 01:34:08 26° N visible
04 Sep 11.9 00:36:24 10° NNE 00:38:21 20° NNE 00:38:21 20° NNE visible
04 Sep 11.8 02:22:20 10° NNW 02:24:49 19° NNW 02:24:49 19° NNW visible
05 Sep 11.7 01:26:23 10° N 01:29:02 25° N 01:29:02 25° N visible
